Content
SEND FEEDBACK

Daily
Averages
Monthly
Summary
United States of America

PYGA BEACH, GUAM


Home > North America > United States > Guam
Elevation: 20 feet     Latitude: 13 17N     Longitude: 144 39E

WEATHER
 
SELECT A DAY
Number of Records: 352,250;   Date Range: 1/1/95 - 10/28/14
 
SHARE

PRINT THIS DATA

[ ← Previous Day ]
WEATHER ALMANAC - JULY 29, 2013
[ Next Day → ]
[ °C ]   °F
Weather ElementAverageHighLow
Temperature82.5 °F86.9 °F (11:55 am)79 °F (5:55 am)
Dewpoint76.8 °F79 °F (12:55 am)73.8 °F (11:55 pm)
Humidity83.3 %96 % (12:55 am)69 % (10:55 am)
Barometer29.81 in29.85 in (12:55 am)29.75 in (3:55 pm)
Wind Speed10 mph13.8 mph (7:37 am)
Wind Gust18.4 mph (7:37 am)
Weather ElementAverage
Visibility9.9 mi
Wind DirectionENE (77.3 °)

Weather ElementTotal
Precipitation---
Cooling Degree Days18 (Base 65)
Growing Degree Days33 (Base 50)
Averaged from 44 records on July 29, 2013
WEATHER CONDITIONS BREAKOUT
WIND DIRECTION BREAKOUT
WEATHER BY HOUR - JULY 29, 2013
[ °C ]   °F
Local TimeTemperatureDewpointHumidityBarometerVisibilityWind DirectionWind SpeedGust SpeedPrecipitationEventsConditions
12:55 AM80.1 °F79.0 °F96 %29.85 in10.0 miENE (60°)10.4 mphMostly Cloudy
1:55 AM80.2 °F78.6 °F95 %29.83 in10.0 miENE (70°)6.9 mphScattered Clouds
2:43 AM80.6 °F78.8 °F94 %29.81 in10.0 miENE (60°)6.9 mphMostly Cloudy
2:53 AM80.6 °F78.8 °F94 %29.81 in10.0 miENE (60°)10.4 mphScattered Clouds
2:55 AM79.9 °F78.4 °F95 %29.81 in10.0 miENE (60°)9.2 mphScattered Clouds
3:55 AM79.9 °F77.0 °F91 %29.81 in10.0 miENE (70°)8.1 mphClear
4:55 AM79.9 °F76.8 °F90 %29.80 in10.0 miENE (60°)10.4 mphPartly Cloudy
5:06 AM80.6 °F77.0 °F89 %29.81 in10.0 miENE (60°)9.2 mphMostly Cloudy
5:20 AM80.6 °F77.0 °F89 %29.81 in10.0 miENE (70°)6.9 mphScattered Clouds
5:55 AM79.0 °F76.8 °F93 %29.81 in10.0 miENE (70°)5.8 mphPartly Cloudy
6:55 AM80.8 °F75.4 °F84 %29.82 in10.0 miENE (70°)10.4 mphClear
7:18 AM82.4 °F78.8 °F89 %29.82 in10.0 miENE (60°)9.2 mphMostly Cloudy
7:26 AM80.6 °F78.8 °F94 %29.82 in10.0 miENE (70°)9.2 mphRainLight Rain
7:37 AM82.4 °F75.2 °F79 %29.82 in10.0 miENE (70°)13.8 mph18.4 mphMostly Cloudy
7:41 AM82.4 °F77.0 °F84 %29.83 in10.0 miENE (70°)13.8 mphScattered Clouds
7:55 AM83.1 °F77.9 °F84 %29.83 in10.0 miENE (70°)13.8 mph0.00 inPartly Cloudy
8:55 AM85.1 °F77.9 °F79 %29.83 in10.0 miEast (80°)13.8 mphPartly Cloudy
9:19 AM82.4 °F77.0 °F84 %29.84 in10.0 miEast (80°)11.5 mphRainLight Rain
9:31 AM84.2 °F78.8 °F84 %29.84 in10.0 miEast (90°)10.4 mphScattered Clouds
9:55 AM85.3 °F78.6 °F80 %29.84 in10.0 miENE (70°)12.7 mph0.00 inScattered Clouds
10:11 AM84.2 °F77.0 °F79 %29.84 in9.0 miNE (50°)13.8 mphRainLight Rain
10:23 AM84.2 °F78.8 °F84 %29.83 in10.0 miENE (70°)9.2 mphScattered Clouds
10:55 AM85.8 °F74.5 °F69 %29.83 in10.0 miENE (70°)12.7 mph0.00 inPartly Cloudy
11:55 AM86.9 °F76.8 °F72 %29.82 in10.0 miENE (70°)11.5 mphScattered Clouds
12:04 PM84.2 °F77.0 °F79 %29.82 in8.0 miENE (70°)13.8 mphRainLight Rain
12:17 PM82.4 °F77.0 °F84 %29.82 in10.0 miEast (100°)12.7 mphScattered Clouds
12:22 PM82.4 °F77.0 °F84 %29.82 in10.0 miEast (100°)6.9 mph17.3 mphMostly Cloudy
12:26 PM82.4 °F77.0 °F84 %29.82 in10.0 miESE (110°)9.2 mph17.3 mphMostly Cloudy
12:55 PM85.3 °F78.1 °F79 %29.81 in10.0 miEast (90°)8.1 mph0.00 inMostly Cloudy
1:55 PM86.4 °F77.2 °F74 %29.78 in10.0 miEast (100°)10.4 mphClear
2:55 PM86.2 °F77.0 °F74 %29.76 in10.0 miEast (100°)10.4 mphClear
3:55 PM84.6 °F75.4 °F74 %29.75 in10.0 miEast (100°)10.4 mphScattered Clouds
3:57 PM84.2 °F75.2 °F74 %29.75 in10.0 miEast (90°)9.2 mphMostly Cloudy
4:03 PM86.0 °F75.2 °F70 %29.75 in10.0 miEast (100°)10.4 mphScattered Clouds
4:55 PM84.7 °F75.6 °F74 %29.75 in10.0 miENE (60°)12.7 mphScattered Clouds
5:55 PM82.8 °F75.2 °F78 %29.77 in10.0 miEast (80°)9.2 mphClear
6:55 PM81.5 °F75.7 °F83 %29.78 in10.0 miENE (70°)8.1 mphPartly Cloudy
7:55 PM81.7 °F74.1 °F78 %29.80 in10.0 miEast (100°)9.2 mphPartly Cloudy
8:55 PM81.1 °F74.7 °F81 %29.81 in10.0 miEast (80°)9.2 mphScattered Clouds
9:52 PM80.6 °F75.2 °F84 %29.82 in10.0 miENE (70°)8.1 mphLight Drizzle
9:55 PM80.6 °F75.6 °F85 %29.82 in10.0 miEast (90°)8.1 mph0.00 inLight Drizzle
10:01 PM80.6 °F77.0 °F89 %29.82 in10.0 miEast (90°)5.8 mphScattered Clouds
10:55 PM80.2 °F75.0 °F84 %29.83 in10.0 miEast (80°)9.2 mph0.00 inClear
11:55 PM79.7 °F73.8 °F82 %29.82 in10.0 miEast (90°)8.1 mphClear
Hourly data recorded from PGUA, located miles away from Pyga Beach, Guam







STORIES FROM OUR PARTNERS